Location: Unspecified
(0.0000°N, 0.0000°E)
Time: 11:52:20
(UTC+00:00)

Hubble Space Telescope - Pass Details

Date: 19 March 2019
Orbit: 537 x 540 km, 28.5° (Epoch: 24 March)

Event Time Altitude Azimuth Distance (km) Brightness Sun altitude
Rises 19:21:05 0° 259° (W) 2,676 5.9 -18.3°
Reaches altitude 10° 19:23:35 10° 271° (W) 1,784 4.7 -18.9°
Maximum altitude 19:27:08 28° 331° (NNW) 1,026 2.4 -19.8°
Enters shadow 19:29:11 19° 15° (NNE) 1,322 2.6 -20.3°
